[[{"header":{"parameterUnit":"m.s-1","parameterCategory":1,"la1":30.2991,"la2":30.254,"lo1":-89.0895,"lo2":-89.0444,"dy":0.0017,"dx":0.0017,"nx":28,"ny":28,"refTime":"2024-06-27T21:00:00:Z","depth":0,"parameterNumber":2,"parameterNumberName":"U-component_of_WINDS"},"data":[0,0,0,0,0,0,0,0,0,0,0,0,0,0,0,0,0,0,0,0,0,0,0,0,0,0,0,0,0,0,0,0,0,0,0,0,0,0,0,0,0,0,0,0,0,0,0,0,0,0,0,0,0,0,0,0,0,0,3.1805,3.1807,0,3.1935,3.1936,3.1938,3.1938,3.1937,3.1935,3.1934,3.2072,3.2077,3.2082,0,0,0,0,0,0,0,0,0,0,0,0,0,3.1565,3.1569,3.1805,3.1807,3.1809,3.1934,3.1936,3.1938,3.1939,3.1937,3.1935,3.1933,3.207,3.2076,3.2083,0,0,0,0,0,0,0,0,0,0,0,0,0,3.1679,3.1571,3.1805,3.1824,3.1827,3.1934,3.1936,3.1938,3.1939,3.1937,3.1934,3.1932,3.2068,3.2076,3.2083,3.2182,0,0,3.2107,3.2111,0,0,0,0,0,0,0,0,3.1673,3.1688,3.182,3.1823,3.1826,3.1918,3.1902,3.202,3.194,3.1897,3.1934,3.1931,3.2023,3.2034,3.2064,3.2189,3.2194,3.2108,3.2113,3.2116,3.2118,0,0,0,0,0,0,0,3.1665,3.1683,3.1857,3.1822,3.1826,3.1828,3.1841,3.1924,3.1973,3.19,3.1901,3.1916,3.2024,3.2057,3.2068,3.2196,3.2108,3.2115,3.212,3.2123,3.2409,3.2412,0,0,0,0,0,0,3.1652,3.1676,3.1853,3.1861,3.1742,3.1834,3.1849,3.1891,3.1972,3.1981,3.1918,3.1915,3.2045,3.2058,3.2072,3.2193,3.2116,3.2124,3.2128,3.2406,3.2409,3.2413,0,0,0,0,0,0,3.1647,3.1668,3.1847,3.1768,3.1791,3.1841,3.1888,3.1895,3.1927,3.1985,3.1994,3.1941,3.2043,3.2061,3.2154,3.2198,3.2127,3.2134,3.2403,3.2407,3.2411,3.2436,0,0,0,0,0,0,3.164,3.1666,3.1703,3.1769,3.1795,3.1926,3.1891,3.1899,3.194,3.1938,3.2009,3.2019,3.2043,3.2143,3.2162,3.2208,3.214,3.2399,3.2405,3.241,3.2431,3.244,3.2448,0,0,0,0,0,3.1632,3.1706,3.1705,3.1726,3.1842,3.1928,3.1943,3.1967,3.1943,3.1982,3.2019,3.2017,3.219,3.2152,3.2174,3.2223,3.2396,3.2403,3.2409,3.2427,3.2438,3.2448,0,0,0,0,0,0,3.1645,3.1715,3.1714,3.1812,3.1864,3.1928,3.1977,3.1978,3.204,3.2035,3.2065,3.2081,3.2174,3.2208,3.2164,3.2323,3.2291,3.2302,3.2297,3.2308,3.2316,3.2306,3.2147,0,0,0,0,0,3.1659,3.1721,3.178,3.186,3.1886,3.1927,3.1965,3.1979,3.2035,3.2057,3.2101,3.2157,3.2224,3.2268,3.2333,3.2436,3.2452,3.248,3.2489,3.2495,3.2505,3.2562,3.2576,3.2434,3.2434,3.2434,0,0,3.169,3.1735,3.1773,3.1864,3.1906,3.1971,3.1945,3.2016,3.2065,3.2069,3.2159,3.2193,3.2257,3.2356,3.2402,3.2387,3.2548,3.2504,3.2509,3.2515,3.257,3.2584,3.2596,3.2438,3.2438,3.2437,0,0,3.1778,3.1818,3.1889,3.1932,3.1995,3.2021,3.2038,3.2103,3.2125,3.2215,3.2219,3.228,3.2395,3.244,3.2479,3.2584,3.2585,3.2605,3.2649,3.2705,3.2716,3.2726,3.2764,3.2777,3.2614,3.2614,3.2614,0,3.1808,3.1904,3.1927,3.1997,3.2037,3.2042,3.2115,3.2156,3.2238,3.2266,3.2248,3.2392,3.2436,3.2546,3.2571,3.2602,3.2624,3.2597,3.2712,3.2722,3.2732,3.2769,3.2783,3.2616,3.2616,3.2616,3.2615,0,3.1938,3.2006,3.2056,3.2133,3.2179,3.225,3.2285,3.233,3.234,3.2369,3.2461,3.2514,3.2589,3.2617,3.2628,3.2728,3.2717,3.2706,3.2674,3.2747,3.2782,3.2796,3.2619,3.2618,3.2618,3.2617,0,0,3.2039,3.2126,3.2144,3.2179,3.2249,3.2303,3.2375,3.2447,3.2485,3.2542,3.2604,3.2701,3.269,3.2734,3.2751,3.2799,3.288,3.2782,3.2784,3.2798,3.2994,3.3002,3.3018,3.2881,3.2884,3.2886,3.2989,0,3.2134,3.226,3.2283,3.2394,3.2457,3.2462,3.2525,3.2576,3.2606,3.2665,3.2698,3.2766,3.2747,3.2773,3.2822,3.286,3.292,3.2853,3.2941,3.2943,3.2924,3.3036,3.3045,3.3139,3.3002,3.3005,3.3006,0,3.2263,3.232,3.2437,3.2498,3.2526,3.2582,3.265,3.2706,3.2764,3.2782,3.283,3.2841,3.2919,3.2883,3.2991,3.2945,3.2982,3.3006,3.3011,3.302,3.2979,3.3048,3.317,3.3183,3.3028,3.3026,3.3025,0,3.2324,3.2431,3.2515,3.2544,3.2618,3.2658,3.2691,3.2746,3.2788,3.2849,3.2876,3.2945,3.2983,3.3038,3.3068,3.3039,3.3173,3.3141,3.3192,3.3191,3.3219,3.3217,3.3348,3.3244,3.3244,3.3243,3.3243,0,3.2428,3.2499,3.2543,3.2594,3.2675,3.2701,3.278,3.2813,3.2863,3.2922,3.2932,3.2988,3.3024,3.3086,3.311,3.3195,3.3213,3.3231,3.3236,3.323,3.3227,3.3254,3.3248,3.3247,3.3246,3.3245,3.3245,0,3.251,3.2542,3.2633,3.2695,3.2713,3.2769,3.2823,3.2874,3.2903,3.2978,3.2998,3.3044,3.3117,3.3152,3.3244,3.326,3.3357,3.3359,3.3336,3.3339,3.3387,3.3382,3.3541,3.3563,3.3444,3.3445,3.3446,0,3.2574,3.2629,3.2696,3.2735,3.2769,3.2832,3.2875,3.2903,3.2947,3.3017,3.306,3.3133,3.3193,3.331,3.3353,3.3423,3.3426,3.3477,3.3437,3.3429,3.3427,3.3423,3.3429,3.3484,3.3485,3.3486,3.3487,0,3.2685,3.2698,3.2757,3.2823,3.2872,3.2926,3.2978,3.3011,3.3048,3.3097,3.317,3.3216,3.3309,3.3382,3.3454,3.3491,3.3496,3.3499,3.3515,3.3508,3.3493,3.3502,3.3356,3.3495,3.3495,3.3494,3.3493,3.3493,3.276,3.2809,3.2863,3.293,3.2972,3.302,3.3071,3.3106,3.3167,3.3243,3.3257,3.3335,3.3393,3.3491,3.353,3.3593,3.3581,3.3604,3.361,3.3615,3.3617,3.3483,3.3606,3.3606,3.3606,3.3606,3.3606,0,3.2871,3.2906,3.2967,3.3039,3.3091,3.3089,3.3148,3.3192,3.326,3.3313,3.3371,3.3456,3.3526,3.3575,3.3647,3.3688,3.3692,3.3706,3.3703,3.3712,3.3623,3.3602,3.3702,3.3702,3.3701,3.3701,3.3701,3.3701,3.2935,3.3017,3.3036,3.314,3.3176,3.325,3.3284,3.333,3.3372,3.3465,3.3523,3.3554,3.3605,3.3681,3.3746,3.3759,3.3785,3.3799,3.3812,3.3728,3.3718,3.3708,3.3689,3.3805,3.3805,3.3895,3.3896,3.3896]},{"header":{"parameterUnit":"m.s-1","parameterCategory":1,"la1":30.2991,"la2":30.254,"lo1":-89.0895,"lo2":-89.0444,"dy":0.0017,"dx":0.0017,"nx":28,"ny":28,"refTime":"2024-06-27T21:00:00:Z","depth":0,"parameterNumber":3,"parameterNumberName":"V-component_of_WINDS"},"data":[0,0,0,0,0,0,0,0,0,0,0,0,0,0,0,0,0,0,0,0,0,0,0,0,0,0,0,0,0,0,0,0,0,0,0,0,0,0,0,0,0,0,0,0,0,0,0,0,0,0,0,0,0,0,0,0,0,0,3.5806,3.5806,0,3.5825,3.5826,3.5826,3.5792,3.5791,3.579,3.5789,3.5806,3.5808,3.5809,0,0,0,0,0,0,0,0,0,0,0,0,0,3.5737,3.5739,3.5806,3.5806,3.5807,3.5825,3.5826,3.5826,3.5792,3.5791,3.5789,3.5788,3.5806,3.5807,3.5809,0,0,0,0,0,0,0,0,0,0,0,0,0,3.5763,3.5739,3.5806,3.5792,3.5791,3.5825,3.5826,3.5826,3.5792,3.5791,3.5789,3.5787,3.5805,3.5807,3.5809,3.5858,0,0,3.5816,3.5817,0,0,0,0,0,0,0,0,3.5761,3.5765,3.5794,3.5793,3.5792,3.5805,3.5808,3.5836,3.5793,3.5792,3.5789,3.5787,3.5807,3.5809,3.5816,3.5858,3.5859,3.5817,3.5818,3.5819,3.582,0,0,0,0,0,0,0,3.576,3.5764,3.5814,3.5794,3.5793,3.5784,3.5786,3.5813,3.5809,3.5792,3.5789,3.5792,3.5806,3.5814,3.5816,3.5859,3.5817,3.5819,3.582,3.5821,3.5941,3.5942,0,0,0,0,0,0,3.576,3.5763,3.5813,3.5814,3.5772,3.5787,3.5789,3.5802,3.5808,3.5807,3.5794,3.5791,3.5811,3.5814,3.5817,3.5872,3.5819,3.5821,3.5822,3.5939,3.5941,3.5943,0,0,0,0,0,0,3.5759,3.5765,3.5812,3.5788,3.5793,3.579,3.5805,3.5804,3.5812,3.581,3.5808,3.5803,3.581,3.5814,3.5848,3.5873,3.5822,3.5824,3.5937,3.594,3.5942,3.5985,0,0,0,0,0,0,3.5757,3.5765,3.5783,3.5789,3.5795,3.5844,3.5807,3.5805,3.5816,3.5812,3.5818,3.5817,3.5809,3.5844,3.585,3.5875,3.5826,3.5934,3.5938,3.5941,3.5981,3.5989,3.5995,0,0,0,0,0,3.5754,3.5794,3.5785,3.5791,3.5819,3.5845,3.5849,3.5838,3.5818,3.5836,3.5835,3.5817,3.5869,3.5848,3.5854,3.588,3.5933,3.5937,3.5941,3.5978,3.5987,3.5995,0,0,0,0,0,0,3.5791,3.5795,3.5784,3.5827,3.5836,3.5839,3.5862,3.5849,3.5863,3.5859,3.5845,3.5847,3.5883,3.5885,3.5861,3.5926,3.5897,3.5903,3.5924,3.5932,3.5939,3.5937,3.5828,0,0,0,0,0,3.5805,3.5827,3.5828,3.5866,3.5871,3.5866,3.5878,3.5869,3.5878,3.5881,3.5882,3.589,3.5908,3.5921,3.5937,3.5982,3.5982,3.6002,3.6009,3.6015,3.602,3.6042,3.6051,3.5956,3.5956,3.5956,0,0,3.5832,3.5837,3.5851,3.5874,3.588,3.5902,3.587,3.5895,3.5911,3.5884,3.5917,3.5918,3.5926,3.5965,3.5982,3.5968,3.6046,3.602,3.6025,3.6026,3.6047,3.6056,3.6064,3.5959,3.5959,3.5958,0,0,3.5893,3.59,3.5931,3.5938,3.5948,3.5944,3.5952,3.5957,3.5957,3.5989,3.597,3.5988,3.602,3.6026,3.6034,3.6097,3.6081,3.6103,3.6139,3.6161,3.6168,3.6175,3.6196,3.6204,3.6108,3.6108,3.6108,0,3.5925,3.5959,3.5949,3.5975,3.5985,3.5963,3.5994,3.6001,3.6016,3.6023,3.6006,3.6045,3.605,3.6089,3.6105,3.6112,3.6119,3.6102,3.6168,3.6175,3.6181,3.6201,3.6209,3.611,3.611,3.611,3.611,0,3.5998,3.6021,3.6046,3.6061,3.6073,3.6102,3.6095,3.6109,3.61,3.6097,3.613,3.6134,3.6151,3.616,3.6151,3.6198,3.6189,3.6171,3.6141,3.6192,3.6211,3.6219,3.6114,3.6113,3.6112,3.6112,0,0,3.6082,3.6091,3.61,3.6106,3.6116,3.6133,3.616,3.6177,3.6189,3.62,3.6221,3.6249,3.6232,3.6241,3.6232,3.6252,3.63,3.6231,3.6231,3.6243,3.6351,3.6364,3.6373,3.629,3.6291,3.6292,3.635,0,3.6142,3.6189,3.6181,3.6227,3.6248,3.6227,3.6251,3.6259,3.6257,3.6274,3.6272,3.6291,3.6269,3.6273,3.6292,3.629,3.6321,3.6286,3.6308,3.6309,3.6306,3.6383,3.6396,3.6451,3.6357,3.6359,3.636,0,3.6217,3.6232,3.628,3.6285,3.6294,3.6315,3.6329,3.6346,3.6354,3.6352,3.6361,3.6349,3.6375,3.6346,3.6381,3.6357,3.6366,3.6367,3.6368,3.6369,3.6337,3.6384,3.6468,3.6476,3.6371,3.637,3.637,0,3.6272,3.6303,3.6336,3.6342,3.635,3.6365,3.6368,3.6375,3.6385,3.6398,3.6404,3.642,3.6428,3.6439,3.6431,3.6411,3.6467,3.6438,3.6465,3.6465,3.6476,3.6475,3.6561,3.6484,3.6484,3.6484,3.6484,0,3.6339,3.6369,3.6361,3.6381,3.6413,3.6403,3.6435,3.6436,3.6442,3.6461,3.6445,3.6463,3.6451,3.6468,3.6462,3.6491,3.6495,3.6493,3.6491,3.6494,3.6494,3.6498,3.6494,3.6486,3.6486,3.6485,3.6485,0,3.6405,3.6401,3.6435,3.644,3.6441,3.6465,3.6468,3.6486,3.6484,3.6508,3.6513,3.6509,3.6528,3.6521,3.6541,3.6537,3.6574,3.6567,3.6571,3.6569,3.6596,3.6593,3.6687,3.6698,3.6615,3.6616,3.6616,0,3.6448,3.647,3.6477,3.6489,3.6494,3.6514,3.6524,3.6515,3.6527,3.6537,3.6554,3.6571,3.6585,3.6616,3.6614,3.6629,3.6622,3.6654,3.6624,3.6626,3.6621,3.6619,3.6621,3.6659,3.666,3.6661,3.6662,0,3.6523,3.6519,3.6536,3.6552,3.6565,3.6577,3.6587,3.6598,3.6589,3.6603,3.6622,3.6633,3.6654,3.6671,3.6684,3.6687,3.6673,3.6671,3.6678,3.6681,3.6682,3.668,3.6586,3.6669,3.6668,3.6668,3.6667,3.6667,3.6577,3.6596,3.6604,3.6623,3.6629,3.6639,3.6656,3.6656,3.6673,3.6689,3.6682,3.6705,3.6711,3.6728,3.6733,3.6749,3.6737,3.6747,3.6749,3.6752,3.6755,3.668,3.6752,3.6752,3.6751,3.6751,3.6751,0,3.665,3.6654,3.6672,3.6687,3.6701,3.6688,3.6698,3.6711,3.6731,3.6739,3.6752,3.6774,3.6791,3.6791,3.6806,3.6819,3.6813,3.6824,3.6822,3.6822,3.6765,3.6757,3.6828,3.6828,3.6828,3.6828,3.6828,3.6828,3.669,3.6721,3.6718,3.6752,3.6756,3.6778,3.6785,3.6793,3.6799,3.6825,3.6839,3.6839,3.6843,3.6859,3.6873,3.6872,3.6878,3.6891,3.6888,3.6834,3.6827,3.6819,3.6812,3.6893,3.6893,3.6943,3.6944,3.6944]}]]